Temp
45 44 41 46 41 43 41 39 38 42 49 44 44 43 47 51 49 49 50 50 53 56 62 61 63 63 62 61 61 63 63 65 65 63 62 63 61 63 63 64 65 63 64 63
41 37 43 45 44 42 40 36 35 43 47 45 43 42 47 50 50 52 52 53 55 56 58 61 60 60 62 63 61 61 64 65 65 66 65 65 65 64 64 64 64 64 64 64
38 41 47 44 41 39 38 38 35 38 43 43 40 40 41 47 47 51 52 55 57 56 57 59 59 59 58 59 60 61 62 64 65 66 62 60 59 58 59 61 61 63 64 64
40 46 44 41 39 41 38 43 43 41 37 30 39 27 36 43 48 49 51 51 51 52 56 57 57 57 56 59 58 60 61 62 63 64 62 62 63 61 63 64 63 63 63 64
37 40 40 40 40 42 40 45 43 40 36 33 30 29 32 38 40 45 50 51 51 53 53 54 54 56 54 55 54 55 57 59 61 61 65 62 62 64 65 60 59 61 62 62
39 44 43 43 45 44 47 43 42 42 37 28 33 31 28 36 40 42 47 49 53 52 51 51 53 55 54 53 53 54 56 57 58 59 59 60 61 62 60 58 58 60 61 61
37 39 42 44 39 41 45 38 23 22 27 25 31 30 38 42 47 45 49 50 49 50 50 52 53 53 52 52 52 54 54 55 55 56 57 58 59 60 60 60 60 60 59 59
32 28 39 45 41 38 39 38 25 18 21 24 32 28 35 45 48 49 49 49 49 50 51 51 51 51 51 51 51 51 52 53 53 53 54 55 57 60 62 62 63 63 62 62
27 28 40 42 45 45 36 34 40 30 24 21 27 32 42 46 48 48 46 48 47 49 50 49 49 49 48 48 48 48 49 50 50 50 51 52 53 54 57 60 61 63 64 63
37 29 39 42 44 44 40 44 32 33 21 18 25 27 33 40 44 47 46 47 47 47 48 47 47 47 46 46 45 46 46 46 47 48 48 50 50 52 53 54 56 59 63 63
39 35 33 39 36 38 38 37 37 37 29 23 19 28 38 42 45 44 45 48 47 47 46 46 45 44 44 43 43 43 43 44 44 45 45 46 48 49 50 51 52 54 57 60
39 34 26 32 37 41 45 40 40 31 26 29 28 30 44 43 42 44 43 44 45 46 45 44 43 43 42 41 41 41 41 41 42 43 43 44 46 47 47 48 50 52 53 56
41 32 21 24 33 35 37 41 42 41 33 30 26 33 45 42 44 44 46 44 44 44 43 43 42 41 40 40 40 39 39 39 40 40 41 43 43 43 44 45 47 49 50 52
46 31 31 28 32 35 33 37 40 38 31 33 34 38 39 39 42 41 42 45 45 45 44 42 40 39 39 39 38 37 37 37 38 39 39 39 39 39 40 42 42 44 46 47
41 26 34 36 33 34 35 37 37 35 37 32 38 37 43 45 45 45 46 45 45 44 43 41 40 38 37 37 36 36 35 35 36 35 35 35 37 38 39 39 39 40 42 44
38 27 31 30 35 34 28 34 36 37 39 38 40 39 50 47 45 44 45 45 44 45 43 40 39 37 36 35 34 35 33 33 34 33 34 36 37 37 37 37 38 39 40 41
36 28 26 26 33 29 26 32 35 37 40 39 33 42 45 44 44 45 45 45 46 44 41 38 36 35 34 33 33 31 31 33 32 32 33 34 35 35 36 37 37 38 39 40
36 34 33 28 25 21 35 45 42 37 41 42 44 46 48 47 46 46 46 46 43 40 37 35 34 33 32 31 30 30 31 32 31 31 32 33 33 34 35 36 36 37 37 37
42 36 31 26 27 29 33 34 38 34 38 43 42 46 48 42 40 43 39 38 39 36 35 33 32 32 30 29 28 29 30 33 32 31 31 31 31 32 33 34 35 35 35 35
37 38 34 28 24 21 36 37 40 40 32 47 46 46 47 39 35 46 39 36 34 33 33 31 31 30 29 28 28 28 28 28 27 28 29 30 31 31 32 33 34 35 35 34
29 31 28 30 26 25 35 36 41 27 32 39 45 47 41 39 45 38 35 32 32 31 30 28 28 27 27 27 27 27 26 24 25 27 27 27 29 30 32 33 34 34 34 34
29 26 26 29 26 23 36 35 35 42 39 38 37 39 38 33 31 32 31 29 29 27 28 28 27 26 26 26 25 24 24 24 24 23 24 24 25 27 31 32 33 33 34 34
27 33 32 32 32 37 39 41 43 40 40 37 36 34 33 31 30 29 27 27 27 26 27 26 24 24 23 22 22 20 20 21 19 17 18 20 23 26 28 29 31 32 33 33
30 34 31 32 36 36 37 36 37 38 38 35 35 33 32 30 30 28 27 27 25 25 22 22 21 20 19 18 19 17 18 17 13 13 16 19 20 21 23 26 29 32 32 32
33 33 29 30 34 34 36 36 34 32 33 32 31 31 30 30 28 27 25 24 23 22 20 19 17 17 15 15 14 13 13 10 10 12 15 16 17 17 19 23 28 29 32 34
33 32 32 33 40 39 38 35 34 32 31 31 29 26 27 28 26 24 22 21 20 17 16 15 13 12 11 10 9 8 5 3 4 9 12 13 14 15 17 23 23 30 33 35
MSLP
1020.12 1020.23 1019.85 1020.43 1020.69 1020.73 1020.82 1020.97 1020.86 1020.43 1019.67 1019.71 1019.46 1018.98 1018.38 1017.77 1017.63 1017.51 1017.39 1017.11 1016.65 1015.95 1014.83 1014.59 1014.35 1014.33 1014.61 1014.68 1014.85 1014.76 1015.05 1014.94 1015.77 1016.42 1016.79 1017.14 1017.10 1017.30 1017.59 1017.51 1017.64 1018.01 1018.31 1018.67
1020.81 1020.32 1020.67 1020.81 1020.96 1021.16 1021.20 1021.39 1021.29 1020.83 1020.16 1020.18 1019.80 1019.24 1018.31 1017.62 1017.03 1016.60 1016.38 1016.13 1015.55 1015.19 1014.61 1014.22 1014.11 1013.96 1013.90 1013.98 1014.14 1014.39 1014.40 1014.57 1014.93 1015.25 1015.52 1015.92 1016.22 1016.52 1016.63 1016.92 1017.26 1017.26 1017.45 1017.60
1020.59 1020.33 1020.25 1020.93 1021.11 1021.35 1021.31 1021.40 1021.59 1021.42 1020.73 1020.31 1020.08 1018.67 1017.95 1016.73 1016.32 1015.89 1015.52 1015.14 1014.82 1014.63 1014.39 1014.07 1013.87 1013.63 1013.60 1013.73 1013.51 1013.52 1013.64 1013.84 1014.19 1014.48 1015.17 1015.72 1016.09 1016.26 1016.32 1016.16 1016.28 1016.09 1016.59 1016.90
1020.61 1020.07 1020.28 1020.66 1020.95 1021.28 1021.27 1021.22 1021.39 1021.52 1021.76 1021.43 1020.79 1019.46 1017.95 1016.91 1016.25 1015.65 1015.03 1014.78 1014.43 1014.29 1013.84 1013.47 1013.40 1013.26 1013.44 1013.22 1013.19 1013.05 1012.98 1013.26 1013.51 1013.96 1014.74 1015.08 1015.12 1015.39 1014.83 1014.80 1015.21 1015.53 1015.76 1016.03
1020.10 1019.90 1020.09 1020.27 1020.48 1020.99 1020.90 1020.79 1021.17 1021.52 1021.87 1021.93 1021.52 1021.50 1017.48 1017.15 1016.52 1015.84 1014.62 1014.11 1014.12 1013.77 1013.36 1012.98 1013.36 1013.24 1013.39 1013.45 1013.38 1013.22 1013.09 1013.27 1013.34 1013.70 1013.73 1014.06 1014.39 1014.34 1014.15 1014.56 1014.74 1014.84 1014.93 1015.05
1020.19 1019.81 1019.75 1019.62 1019.99 1020.35 1020.39 1020.99 1021.29 1021.85 1022.37 1022.02 1021.49 1021.81 1018.09 1017.32 1016.04 1015.49 1014.55 1014.01 1013.78 1013.84 1013.36 1013.14 1013.22 1013.47 1013.82 1013.86 1013.86 1013.74 1013.62 1013.65 1013.54 1013.75 1013.94 1014.11 1014.19 1014.12 1014.25 1014.28 1014.37 1014.42 1014.57 1014.69
1020.40 1019.94 1019.71 1019.59 1019.99 1020.39 1020.71 1021.13 1022.14 1022.80 1023.02 1022.06 1021.43 1021.43 1017.42 1016.30 1015.41 1015.25 1014.54 1013.94 1013.80 1013.92 1014.13 1013.78 1013.96 1014.19 1014.50 1014.50 1014.34 1014.24 1014.14 1014.19 1014.14 1014.00 1014.02 1014.06 1013.95 1013.89 1013.80 1013.70 1013.72 1013.82 1013.91 1013.94
1020.20 1020.05 1019.51 1019.21 1019.40 1019.79 1020.19 1020.96 1021.47 1022.35 1022.89 1022.43 1021.94 1019.85 1016.75 1015.48 1014.63 1014.22 1013.87 1013.86 1013.88 1014.03 1014.41 1014.59 1014.58 1014.75 1014.95 1015.06 1014.97 1014.81 1014.75 1014.79 1014.66 1014.43 1014.27 1014.10 1013.95 1013.70 1013.44 1013.30 1013.26 1013.13 1012.93 1012.79
1019.76 1019.50 1018.47 1018.57 1018.70 1019.09 1019.95 1020.04 1020.86 1021.89 1022.91 1022.74 1020.90 1018.81 1016.67 1015.22 1014.32 1013.52 1013.81 1013.82 1013.98 1014.23 1014.84 1015.23 1015.23 1015.40 1015.59 1015.68 1015.79 1015.71 1015.43 1015.22 1015.07 1014.91 1014.68 1014.35 1014.07 1013.87 1013.58 1013.19 1012.75 1012.43 1012.23 1012.14
1018.84 1019.15 1018.48 1018.41 1018.81 1018.56 1018.65 1019.32 1020.60 1021.09 1022.26 1022.15 1020.05 1018.96 1016.74 1015.23 1014.52 1013.85 1013.86 1014.07 1014.54 1014.95 1015.40 1015.90 1016.09 1016.29 1016.37 1016.39 1016.35 1016.15 1016.03 1015.95 1015.74 1015.41 1015.11 1014.76 1014.35 1013.95 1013.61 1013.17 1012.71 1012.25 1011.79 1011.56
1018.45 1018.80 1019.10 1018.66 1018.21 1017.89 1018.43 1018.54 1018.99 1019.72 1020.78 1020.38 1019.53 1017.47 1015.32 1014.57 1014.32 1014.17 1013.93 1014.04 1014.60 1015.41 1015.84 1016.30 1016.58 1016.78 1016.85 1016.77 1016.68 1016.62 1016.48 1016.33 1016.14 1015.90 1015.52 1015.05 1014.59 1014.10 1013.61 1013.20 1012.73 1012.25 1011.72 1011.32
1018.02 1018.48 1018.95 1018.37 1017.76 1017.55 1017.45 1017.37 1018.22 1018.52 1019.10 1019.46 1018.84 1016.05 1014.63 1014.39 1014.15 1013.94 1014.16 1014.36 1014.87 1015.68 1016.17 1016.63 1016.88 1016.98 1017.29 1017.42 1017.27 1017.23 1017.21 1017.04 1016.68 1016.46 1015.98 1015.50 1014.96 1014.45 1013.96 1013.43 1012.87 1012.31 1011.73 1011.11
1017.13 1018.03 1018.90 1018.53 1018.10 1017.60 1017.15 1017.01 1017.21 1017.79 1018.28 1017.97 1017.76 1014.99 1014.26 1014.13 1014.07 1014.16 1014.57 1015.17 1015.55 1016.01 1016.40 1016.81 1017.27 1017.60 1017.99 1018.09 1018.22 1017.98 1017.68 1017.39 1017.09 1016.78 1016.36 1015.90 1015.49 1015.07 1014.53 1013.82 1013.08 1012.44 1011.80 1011.14
1016.65 1017.21 1017.11 1016.57 1016.03 1016.12 1016.72 1016.30 1016.74 1017.28 1017.60 1016.27 1016.25 1014.50 1014.51 1014.25 1014.19 1014.55 1014.79 1015.08 1015.61 1015.95 1016.48 1017.20 1017.69 1018.06 1018.23 1018.49 1018.39 1017.96 1017.84 1017.84 1017.56 1017.07 1016.75 1016.46 1016.18 1015.72 1015.23 1014.58 1013.78 1012.94 1012.21 1011.35
1016.48 1016.61 1016.67 1016.03 1016.30 1016.16 1015.83 1015.85 1016.09 1016.63 1015.98 1016.03 1014.35 1014.46 1013.27 1013.90 1014.02 1014.32 1014.64 1015.11 1015.77 1016.26 1016.91 1017.25 1017.68 1018.21 1018.57 1018.81 1018.84 1018.85 1018.92 1018.67 1017.81 1017.46 1017.09 1017.21 1016.80 1016.32 1015.66 1015.08 1014.44 1013.44 1012.76 1011.78
1016.01 1016.26 1016.65 1016.33 1016.11 1015.97 1015.91 1015.46 1015.47 1015.16 1014.31 1014.73 1013.97 1013.40 1011.05 1012.69 1013.51 1014.12 1014.38 1014.96 1015.56 1015.96 1016.57 1017.30 1017.88 1018.44 1018.95 1019.08 1019.12 1019.31 1019.28 1018.90 1018.39 1017.83 1017.55 1017.59 1017.16 1016.67 1016.19 1015.57 1014.73 1013.82 1013.02 1012.31
1015.33 1015.76 1016.43 1015.90 1015.52 1016.07 1015.78 1014.27 1013.46 1013.86 1013.76 1013.17 1013.32 1010.70 1011.86 1012.23 1013.00 1013.42 1013.98 1014.41 1014.78 1015.30 1016.27 1017.18 1017.99 1018.58 1019.03 1019.45 1019.60 1019.35 1019.35 1019.14 1018.90 1018.50 1017.95 1017.65 1017.18 1016.82 1016.33 1015.83 1015.00 1014.20 1013.11 1012.19
1014.37 1014.89 1015.38 1015.35 1015.59 1014.36 1012.75 1011.51 1012.87 1012.78 1012.11 1012.23 1011.81 1010.60 1010.99 1011.39 1012.27 1012.81 1013.03 1013.37 1014.18 1015.23 1016.32 1017.32 1018.09 1018.87 1019.44 1019.64 1019.20 1019.18 1019.15 1019.21 1019.23 1018.91 1018.49 1017.86 1017.31 1016.69 1016.11 1015.41 1014.89 1013.98 1013.03 1012.03
1013.39 1013.95 1014.20 1014.11 1013.74 1013.01 1012.20 1011.41 1011.06 1011.28 1010.28 1010.95 1011.10 1009.65 1009.89 1011.56 1012.41 1012.47 1012.76 1013.59 1014.38 1015.41 1016.63 1017.67 1018.45 1018.91 1019.27 1019.48 1019.47 1019.44 1019.36 1019.18 1019.30 1018.98 1018.43 1017.93 1017.26 1016.41 1015.72 1014.99 1014.42 1013.79 1012.87 1011.98
1012.96 1012.90 1013.35 1013.13 1012.59 1011.62 1010.62 1009.40 1009.53 1010.80 1010.66 1008.87 1009.72 1009.49 1009.91 1012.05 1013.10 1010.62 1012.81 1013.91 1015.12 1016.08 1017.08 1018.11 1018.71 1019.14 1019.56 1019.82 1019.76 1019.75 1019.62 1019.52 1019.41 1019.23 1018.91 1018.11 1017.38 1016.72 1015.85 1015.24 1014.63 1014.18 1013.11 1012.11
1012.56 1011.95 1011.31 1010.59 1010.95 1010.87 1009.29 1009.55 1009.77 1010.68 1009.27 1007.93 1008.37 1008.45 1010.14 1011.49 1011.13 1012.00 1013.06 1014.49 1015.64 1016.75 1017.69 1018.45 1019.00 1019.48 1019.93 1019.98 1020.00 1019.97 1019.99 1020.12 1020.02 1019.56 1019.04 1018.28 1017.54 1016.87 1015.74 1015.14 1014.76 1013.85 1012.79 1012.13
1011.69 1010.93 1010.28 1010.04 1009.52 1009.67 1008.91 1009.88 1009.49 1008.10 1008.54 1008.58 1008.75 1009.59 1010.49 1011.15 1012.30 1013.12 1014.05 1015.36 1016.59 1017.54 1018.35 1018.87 1019.42 1019.90 1020.22 1020.39 1020.44 1020.44 1020.47 1020.58 1020.32 1019.95 1019.28 1018.48 1017.84 1016.95 1015.73 1015.19 1014.59 1013.77 1013.06 1012.41
1011.01 1009.35 1008.72 1008.68 1007.67 1006.90 1007.51 1007.28 1007.59 1008.79 1008.84 1009.36 1009.55 1010.11 1010.92 1011.91 1013.10 1014.14 1015.26 1016.28 1017.18 1017.91 1018.75 1019.38 1019.75 1020.11 1020.49 1020.71 1020.82 1020.82 1020.82 1020.67 1020.53 1020.20 1019.57 1018.74 1017.90 1017.04 1016.46 1015.80 1014.62 1013.72 1013.11 1012.47
1009.49 1008.77 1008.56 1008.38 1007.39 1007.35 1007.52 1007.74 1007.97 1008.80 1009.30 1009.63 1009.83 1010.78 1011.47 1012.34 1013.74 1014.83 1015.79 1016.88 1017.85 1018.63 1019.30 1019.88 1020.17 1020.66 1021.06 1021.27 1021.31 1021.42 1021.10 1020.98 1020.87 1020.39 1019.79 1019.14 1018.45 1017.68 1016.99 1015.93 1014.84 1014.03 1013.27 1012.65
1008.71 1009.45 1008.09 1007.99 1007.68 1007.99 1007.77 1008.02 1008.40 1009.44 1010.00 1010.70 1010.82 1011.44 1012.19 1013.16 1014.54 1015.55 1016.46 1017.27 1018.31 1019.27 1019.94 1020.40 1020.85 1021.23 1021.64 1021.69 1021.60 1021.62 1021.50 1021.39 1021.32 1020.84 1020.11 1019.57 1018.95 1018.14 1017.13 1016.17 1015.15 1014.24 1013.39 1012.86
1007.57 1008.14 1008.65 1007.62 1007.20 1007.42 1007.55 1007.85 1008.88 1009.96 1010.62 1011.10 1011.45 1012.75 1013.41 1014.02 1015.26 1016.19 1017.56 1018.43 1019.15 1019.99 1020.66 1021.25 1021.93 1022.31 1022.22 1021.99 1021.97 1021.85 1021.94 1022.08 1022.02 1021.53 1020.81 1020.16 1019.31 1018.50 1017.65 1016.52 1015.26 1014.35 1013.39 1012.64
Wind_Speed
3 9 14 15 3 4 4 4 6 3 5 3 8 9 10 11 8 9 9 9 12 13 13 8 9 8 7 7 8 10 10 14 9 7 8 8 10 9 8 9 12 10 11 12
3 12 7 3 4 3 3 2 3 6 4 3 7 11 12 12 9 10 10 11 13 10 9 10 9 8 8 8 8 7 11 10 11 9 9 8 7 8 8 7 9 12 13 13
6 2 13 6 3 5 5 8 3 5 7 4 7 10 9 8 4 6 9 13 12 12 13 12 9 10 7 8 9 8 10 10 11 13 3 2 2 0 3 7 9 13 13 13
8 9 5 5 6 6 12 6 4 3 4 4 3 10 5 5 8 6 12 10 10 10 11 11 8 8 6 9 6 7 8 9 9 10 7 10 10 10 10 10 8 8 11 13
7 5 10 9 5 7 8 6 8 4 4 5 1 4 7 3 6 10 12 11 9 8 10 10 6 6 3 5 5 5 3 4 4 5 11 9 11 9 9 4 6 9 9 13
6 0 4 7 5 8 2 3 3 2 1 8 8 5 5 4 6 5 6 8 6 7 8 5 7 8 6 5 6 7 7 6 4 3 6 8 10 11 6 5 6 7 6 7
4 8 1 2 5 2 8 5 1 2 5 7 1 6 12 7 11 8 10 9 6 4 4 6 8 8 7 7 7 5 7 6 7 6 3 6 8 8 10 9 8 9 6 7
9 4 14 9 9 8 12 8 6 8 5 4 2 10 8 8 10 9 9 7 6 5 3 4 7 7 7 8 8 8 8 7 7 7 7 6 6 6 7 9 9 8 9 9
7 7 2 3 6 12 7 15 7 4 1 2 6 8 9 10 13 9 5 4 5 7 4 6 7 7 7 7 7 7 7 7 7 7 6 7 6 6 5 8 8 8 11 9
6 2 5 12 4 7 7 7 5 4 4 5 5 6 9 8 8 8 7 5 5 5 6 5 6 6 6 6 5 7 6 6 6 7 6 6 6 6 6 6 8 9 10 10
5 4 3 7 11 17 8 8 6 5 6 5 2 7 9 9 9 9 8 8 9 7 7 5 5 5 5 5 7 7 8 7 7 7 7 8 7 8 7 6 7 8 9 10
7 3 5 9 2 4 18 15 13 7 7 6 1 9 3 5 0 5 7 4 8 7 6 5 4 5 6 7 7 7 7 7 8 8 8 8 8 9 8 8 8 7 9 9
14 5 1 6 4 2 10 15 15 16 2 12 8 12 2 3 5 4 8 6 6 6 5 4 3 5 5 5 5 5 5 8 8 8 8 9 9 10 11 11 11 11 10 10
17 4 11 14 5 7 9 10 17 14 11 19 12 22 4 1 6 1 3 6 7 6 6 3 3 3 5 5 5 7 7 6 7 7 8 9 10 10 10 11 12 12 12 11
12 8 13 18 2 2 5 17 16 19 23 14 23 20 20 11 10 8 7 5 6 7 7 5 3 2 4 5 6 6 6 7 7 7 8 10 12 12 12 12 13 12 12 12
6 7 8 15 13 8 4 6 14 20 26 19 28 23 24 9 4 7 9 8 9 9 8 7 5 4 1 2 3 5 5 6 5 6 7 9 11 12 12 13 13 12 11 11
12 7 4 12 15 4 7 18 20 15 18 15 19 31 5 10 10 12 12 11 13 10 8 7 5 3 2 3 2 4 5 5 6 6 7 8 9 10 12 13 12 13 12 11
12 15 8 11 4 17 15 20 17 17 17 20 21 25 15 14 10 9 11 11 9 9 8 6 5 3 2 1 4 4 4 5 5 8 9 8 8 9 9 12 14 12 10 10
15 12 13 10 15 5 5 8 19 16 28 17 21 30 21 6 3 11 4 3 6 7 7 5 4 3 3 4 5 3 4 5 6 8 9 10 10 11 11 12 13 12 11 10
10 10 17 4 13 11 18 7 8 6 15 19 24 27 21 9 8 21 10 8 8 8 7 6 5 4 4 3 4 3 4 5 6 7 9 9 10 10 10 11 12 10 9 10
12 11 20 19 8 6 9 3 7 10 15 6 21 26 7 11 13 3 11 7 8 7 8 6 5 5 4 4 4 4 4 6 7 8 9 9 9 10 9 10 10 10 11 10
10 6 6 5 3 5 9 6 12 12 2 5 6 7 9 6 7 9 10 10 9 9 7 5 5 4 4 5 5 5 5 8 8 10 10 9 10 9 9 11 9 9 9 9
8 10 10 11 10 2 10 8 10 4 6 7 6 5 8 9 6 9 9 8 7 8 6 4 4 4 4 5 5 5 7 9 10 9 9 9 10 9 10 10 10 8 8 7
4 5 5 4 6 8 11 3 4 6 4 4 4 6 8 9 11 9 9 8 6 5 5 4 5 5 4 4 6 5 6 8 7 8 9 9 9 10 9 8 8 7 7 7
7 2 6 5 4 2 5 7 7 5 5 5 5 5 7 12 8 8 7 8 7 5 4 4 4 3 3 4 5 5 7 7 8 8 8 8 7 8 10 8 7 7 8 8
7 8 7 8 11 7 4 9 8 10 8 8 8 6 5 7 9 9 7 5 5 5 3 3 3 3 4 4 5 5 5 5 6 9 7 7 7 7 7 9 11 12 16 17
Wind_Direction
206 207 212 211 201 204 155 183 231 298 265 262 241 261 267 272 284 266 248 245 257 258 266 246 254 242 236 235 216 211 193 209 191 193 199 207 214 216 219 217 215 201 204 206
143 227 213 209 201 234 212 228 263 289 276 217 278 267 263 258 249 242 244 250 249 254 267 270 259 245 226 236 219 217 216 209 205 201 208 208 209 221 223 217 220 215 211 207
185 247 189 183 184 199 225 232 225 238 321 283 303 271 237 262 235 251 258 250 259 254 264 267 259 252 249 238 230 215 213 208 206 212 164 139 63 222 200 215 215 218 214 213
226 240 144 177 208 162 247 184 194 247 331 261 11 291 250 243 263 251 255 255 250 269 259 250 250 260 259 255 246 230 219 199 200 190 190 205 215 220 227 222 221 218 210 217
225 192 199 214 192 179 232 172 211 229 248 304 194 292 276 317 278 264 258 263 261 276 267 259 256 260 19 43 27 5 299 268 258 208 205 204 217 224 237 202 209 214 209 211
218 293 172 205 172 172 207 225 159 93 100 257 206 175 260 226 220 262 264 275 250 310 360 105 89 91 73 47 45 38 48 39 17 230 216 221 227 234 238 228 221 230 224 215
190 235 244 134 163 122 197 152 299 283 217 235 354 207 252 274 257 233 272 286 304 49 20 97 87 71 57 48 42 46 44 40 20 21 319 249 245 241 237 234 227 230 220 214
197 226 202 187 199 185 198 178 169 200 209 242 139 235 251 244 277 262 262 268 265 194 154 86 77 75 60 47 31 28 29 24 15 13 349 335 296 262 253 250 252 248 238 234
170 253 199 194 168 167 191 209 177 96 23 52 228 292 291 263 279 277 265 276 228 154 111 85 73 60 50 38 29 23 19 18 16 7 357 345 335 327 299 284 263 252 251 246
203 233 202 203 147 224 186 150 174 181 210 236 256 265 236 298 280 262 273 206 189 128 103 90 68 52 40 33 14 24 24 15 356 353 352 340 323 319 305 298 287 280 269 251
165 145 329 119 204 195 185 202 203 180 172 202 266 257 216 233 274 273 256 215 161 154 136 112 77 49 36 29 24 14 11 3 3 356 340 334 331 325 319 304 295 290 290 283
178 148 194 213 283 243 223 220 201 200 212 241 263 256 274 198 317 88 37 105 130 131 137 114 86 56 32 21 16 14 1 356 357 343 339 337 333 335 330 323 315 305 295 287
171 193 87 334 339 213 210 216 216 221 76 212 206 258 273 231 118 106 116 115 130 142 132 114 68 49 31 18 3 4 3 0 351 343 339 344 349 343 336 331 328 324 317 306
166 156 204 218 217 149 211 197 210 211 229 238 228 250 250 123 139 163 145 173 179 176 174 155 88 43 25 7 356 4 360 352 342 342 351 349 348 341 335 331 332 330 324 314
182 206 212 238 357 183 216 214 209 212 231 223 242 243 244 236 226 222 224 197 191 202 196 177 134 62 26 8 2 352 337 324 349 356 7 350 344 340 337 335 331 331 327 329
211 243 183 246 231 212 224 209 214 218 227 233 244 253 250 225 200 195 219 208 209 215 184 164 148 134 123 7 5 341 332 338 344 9 9 350 345 341 338 332 331 333 330 331
195 172 144 238 222 150 233 226 214 224 226 217 228 239 201 221 203 206 210 211 214 212 176 167 150 130 65 12 327 353 335 330 347 356 1 350 340 337 338 333 332 333 330 330
206 211 200 240 121 223 227 241 208 211 227 221 241 255 238 239 210 217 225 221 210 178 152 146 132 135 128 350 15 348 341 1 352 357 351 341 333 329 326 339 338 331 323 325
222 213 225 222 224 255 268 206 195 183 238 212 222 243 242 175 121 257 171 154 165 141 135 129 130 119 78 26 355 346 358 17 352 349 343 335 332 331 331 335 335 330 325 323
223 235 217 192 226 217 222 212 165 127 253 218 217 242 245 138 205 249 167 147 124 115 124 134 128 107 83 22 354 359 360 15 356 338 328 323 325 323 326 324 325 320 318 316
209 212 222 218 225 270 247 136 141 139 236 163 201 225 194 196 225 127 130 111 122 126 127 114 104 100 75 26 355 15 4 6 336 331 325 324 324 317 321 318 315 318 328 329
213 220 207 204 250 236 169 86 183 215 339 172 153 181 187 146 126 131 123 126 126 124 112 94 97 87 69 37 18 9 15 346 340 335 326 327 322 319 325 323 313 321 323 327
230 210 203 196 204 157 193 177 186 270 181 199 170 170 156 136 151 137 132 126 127 125 115 95 95 90 78 36 28 9 354 352 342 333 326 324 324 326 324 314 315 319 322 324
247 237 204 104 218 203 200 192 165 180 189 164 147 144 147 137 144 133 130 132 121 112 102 82 61 48 31 23 14 1 358 356 340 331 329 326 327 324 315 314 318 316 316 317
172 252 183 258 283 164 232 202 152 145 134 124 99 117 125 133 129 133 126 120 111 102 73 59 51 38 345 356 359 352 358 2 346 330 327 325 323 320 319 310 308 311 305 299
177 183 204 216 237 210 219 181 156 160 167 149 123 108 80 111 123 117 108 105 109 103 72 50 20 339 325 353 346 343 354 9 347 328 327 322 318 319 315 319 314 308 306 313